Weather Roundup
Issued by NWS

Home | Current Version | Previous Version | Graphics & Text | Print | Product List | Glossary Off
Versions: 1 2 3 4 5 6 7 8 9 10 11 12 13 14 15 16 17 18 19 20 21 22 23 24 25 26 27 28 29 30 31 32 33 34 35 36 37 38 39 40 41 42 43 44 45 46 47 48 49 50

000
NZUS93 KARX 010459
HRRWXR

CURRENT HOURLY OBSERVATIONS ACROSS
MUCH OF THE UPPER MISSISSIPPI VALLEY
NATIONAL WEATHER SERVICE LA CROSSE WI
1200 AM CDT SAT AUG 01 2015


...SOUTHEAST MINNESOTA...


CITY           SKY/WX    TMP DP  RH WIND       PRES   REMARKS
ROCHESTER      CLEAR     62  57  83 W8        30.05S
ROCHESTER/MAYO FAIR      68  57  68 W6        30.04S
WINONA         CLEAR     64  59  82 CALM      30.01S
AUSTIN         CLEAR     63  59  88 SW5       30.05S
ALBERT LEA     CLEAR     64  63  94 SW3       30.05S
DODGE CENTER   PTCLDY    61  57  88 W5        30.04F
PRESTON        CLEAR     64  56  76 W7        30.05S
OWATONNA       MOCLDY    64  57  77 S5        30.04S
FARIBAULT      CLEAR     63  59  88 CALM      30.03F
$$

...ELSEWHERE IN MINNESOTA...


CITY           SKY/WX    TMP DP  RH WIND       PRES   REMARKS
MINNEAPOLIS    FAIR      72  57  59 W6        30.00S
INTNL FALLS    CLEAR     60  51  72 W6        29.92R
DULUTH         CLEAR     62  49  62 W8        29.95R
RED WING       CLEAR     61  57  88 CALM      29.99S
REDWOOD FALLS  CLEAR     67  60  78 S6        30.01S
MANKATO        MOCLDY    66  55  68 S6        30.02F
WORTHINGTON    CLEAR     68  57  68 SW8       30.07S
FAIRMONT       FAIR      64  54  68 SW8       30.04F
$$

...SOUTHWEST WISCONSIN...


CITY           SKY/WX    TMP DP  RH WIND       PRES   REMARKS
LA CROSSE      PTCLDY    66  57  72 SE3       30.00R
PRAIRIE DU CHI CLEAR     64  56  77 CALM      30.02S
BOSCOBEL       CLEAR     60  57  89 SW3       30.02R
LONE ROCK      NOT AVBL
PLATTEVILLE    CLEAR     62  57  82 SW3       30.03S
FORT MC COY    CLEAR     55  52  89 CALM      30.01S
VIROQUA        FAIR      62  53  72 W7        30.03S
WIS DELLS      CLEAR     59  51  74 CALM      30.00S
$$

...ELSEWHERE IN WISCONSIN...


CITY           SKY/WX    TMP DP  RH WIND       PRES   REMARKS
MILWAUKEE      CLEAR     71  51  49 W6        29.96S
MADISON        CLEAR     67  51  56 W3        29.99S
GREEN BAY      PTCLDY    61  56  83 W7        29.93S
EAU CLAIRE     NOT AVBL
BLACK RVR FLS  FAIR      52  52  99 CALM      29.99S
MEDFORD        CLEAR     61  52  73 W5        29.98S
WAUSAU         CLEAR     63  55  75 S5        29.95S
WIS RAPIDS     CLEAR     63  51  65 W6        29.99R
MARSHFIELD     CLEAR     61  50  67 W7        29.98S
RICE LAKE      PTCLDY    57  54  88 W3        30.00S
$$

...NORTHEAST IOWA...


CITY           SKY/WX    TMP DP  RH WIND       PRES   REMARKS
DECORAH        CLEAR     66  59  77 CALM      30.04S
MASON CITY     CLEAR     62  59  90 CALM      30.07F
CHARLES CITY   CLEAR     63  61  94 W5        30.06S
OELWEIN        CLEAR     64  61  88 W6        30.06S
$$

...ELSEWHERE IN IOWA...


CITY           SKY/WX    TMP DP  RH WIND       PRES   REMARKS
DES MOINES     PTCLDY    76  63  64 S5        30.07R
IOWA CITY      CLEAR     67  61  81 W5        30.06S
FORT DODGE     CLEAR     63  59  88 CALM      30.09R
$$

...NORTHERN ILLINOIS...


CITY           SKY/WX    TMP DP  RH WIND       PRES   REMARKS
CHICAGO-OHARE  CLEAR     70  52  52 W8        29.98R
CHICAGO-MIDWAY CLEAR     74  51  44 W7        29.98R
MOLINE         CLEAR     65  59  81 SW3       30.04R
ROCKFORD       CLEAR     63  54  72 SW3       30.02S
PEORIA         CLEAR     73  59  61 NW3       30.04R
$$

NOTE: "FAIR" INDICATES FEW OR NO CLOUDS BELOW 12,000 FEET WITH NO
SIGNIFICANT WEATHER AND/OR OBSTRUCTIONS TO VISIBILITY. WIND
SPEEDS ARE IN MILES-PER-HOUR.



USA.gov is the U.S. government's official web portal to all federal, state and local government web resources and services.